| time (UTC) | temp F | wind direction | speed knots | gust knots | rain 1hr in | rain 24hr in | rain mn in | humidity % | barometer mb |
| 20260505070329 | 36 | 1 | 9.6 | 13.0 | 0.00 | 0.00 | 0.00 | 91 | 1014.4 |
| 20260505065825 | 36 | 60 | 7.0 | 9.6 | 0.00 | 0.00 | 0.00 | 90 | 1014.2 |
| 20260505065321 | 36 | 32 | 10.4 | 13.0 | 0.00 | 0.00 | 0.00 | 90 | 1014.4 |
| 20260505064819 | 36 | 21 | 11.3 | 15.6 | 0.00 | 0.00 | 0.00 | 90 | 1014.2 |
| 20260505064316 | 37 | 26 | 5.2 | 14.8 | 0.00 | 0.00 | 0.00 | 90 | 1014.2 |
| 20260505063814 | 37 | 359 | 12.2 | 13.9 | 0.00 | 0.00 | 0.00 | 89 | 1014.2 |
| 20260505063310 | 37 | 353 | 10.4 | 13.9 | 0.00 | 0.00 | 0.00 | 89 | 1014.4 |
| 20260505062806 | 37 | 7 | 14.8 | 20.0 | 0.00 | 0.00 | 0.00 | 88 | 1014.5 |
| 20260505062304 | 37 | 350 | 11.3 | 19.1 | 0.00 | 0.00 | 0.00 | 87 | 1014.2 |
| 20260505061800 | 38 | 347 | 14.8 | 20.0 | 0.00 | 0.00 | 0.00 | 87 | 1014.2 |
| 20260505061259 | 38 | 35 | 12.2 | 18.2 | 0.00 | 0.00 | 0.00 | 87 | 1014.3 |
| 20260505060756 | 38 | 38 | 8.7 | 15.6 | 0.00 | 0.00 | 0.00 | 86 | 1014.3 |
| 20260505060253 | 39 | 358 | 13.9 | 18.2 | 0.00 | 0.00 | 0.00 | 84 | 1014.1 |
| 20260505055748 | 39 | 31 | 9.6 | 13.9 | 0.00 | 0.00 | 0.00 | 83 | 1013.8 |
| 20260505055244 | 40 | 22 | 12.2 | 21.7 | 0.00 | 0.00 | 0.00 | 80 | 1014.1 |
| 20260505054742 | 42 | 38 | 10.4 | 17.4 | 0.00 | 0.00 | 0.00 | 77 | 1013.8 |
| 20260505054239 | 43 | 68 | 5.2 | 7.0 | 0.00 | 0.00 | 0.00 | 72 | 1013.2 |
| 20260505053738 | 43 | 62 | 6.1 | 9.6 | 0.00 | 0.00 | 0.00 | 71 | 1013.6 |
| 20260505053234 | 44 | 75 | 2.6 | 9.6 | 0.00 | 0.00 | 0.00 | 68 | 1013.5 |
| 20260505052731 | 44 | 77 | 3.5 | 7.8 | 0.00 | 0.00 | 0.00 | 67 | 1013.5 |
| 20260505052228 | 45 | 63 | 3.5 | 7.8 | 0.00 | 0.00 | 0.00 | 65 | 1013.4 |
| 20260505051725 | 45 | 74 | 6.1 | 8.7 | 0.00 | 0.00 | 0.00 | 64 | 1013.2 |
| 20260505051223 | 45 | 64 | 5.2 | 7.8 | 0.00 | 0.00 | 0.00 | 65 | 1013.4 |
| 20260505050721 | 45 | 71 | 3.5 | 8.7 | 0.00 | 0.00 | 0.00 | 64 | 1013.0 |
| 20260505050219 | 45 | 59 | 4.3 | 9.6 | 0.00 | 0.00 | 0.00 | 64 | 1013.1 |
| 20260505041648 | 46 | 70 | 9.6 | 14.8 | 0.00 | 0.00 | 0.00 | 63 | 1013.1 |
| 20260505041146 | 47 | 68 | 7.0 | 13.0 | 0.00 | 0.00 | 0.00 | 63 | 1013.2 |
| 20260505040643 | 47 | 60 | 9.6 | 13.9 | 0.00 | 0.00 | 0.00 | 62 | 1013.4 |
| 20260505040140 | 47 | 58 | 6.1 | 11.3 | 0.00 | 0.00 | 0.00 | 62 | 1013.0 |
| 20260505035636 | 47 | 68 | 7.8 | 12.2 | 0.00 | 0.00 | 0.00 | 61 | 1012.9 |
| 20260505035132 | 47 | 74 | 3.5 | 7.8 | 0.00 | 0.00 | 0.00 | 62 | 1013.1 |
| 20260505034629 | 47 | 40 | 4.3 | 9.6 | 0.00 | 0.00 | 0.00 | 62 | 1012.9 |
| 20260505034126 | 47 | 46 | 5.2 | 7.8 | 0.00 | 0.00 | 0.00 | 62 | 1012.8 |
| 20260505033623 | 48 | 42 | 5.2 | 11.3 | 0.00 | 0.00 | 0.00 | 62 | 1012.9 |
| 20260505033121 | 48 | 46 | 4.3 | 11.3 | 0.00 | 0.00 | 0.00 | 61 | 1012.7 |
| 20260505032619 | 48 | 22 | 5.2 | 12.2 | 0.00 | 0.00 | 0.00 | 62 | 1012.8 |
| 20260505032115 | 48 | 42 | 5.2 | 8.7 | 0.00 | 0.00 | 0.00 | 62 | 1012.4 |
| 20260505031613 | 48 | 44 | 6.1 | 13.0 | 0.00 | 0.00 | 0.00 | 61 | 1012.5 |
| 20260505031108 | 48 | 68 | 4.3 | 11.3 | 0.00 | 0.00 | 0.00 | 61 | 1012.4 |
| 20260505030606 | 48 | 48 | 3.5 | 7.8 | 0.00 | 0.00 | 0.00 | 62 | 1012.4 |
| 20260505025557 | 49 | 50 | 5.2 | 11.3 | 0.00 | 0.00 | 0.00 | 61 | 1012.4 |
| 20260505025056 | 49 | 45 | 4.3 | 9.6 | 0.00 | 0.00 | 0.00 | 62 | 1012.4 |
| 20260505024553 | 48 | 48 | 5.2 | 7.0 | 0.00 | 0.00 | 0.00 | 63 | 1012.3 |
| 20260505024050 | 48 | 72 | 1.7 | 4.3 | 0.00 | 0.00 | 0.00 | 67 | 1012.3 |
| 20260505023547 | 48 | 59 | 4.3 | 7.0 | 0.00 | 0.00 | 0.00 | 65 | 1011.8 |
| 20260505023045 | 49 | 55 | 4.3 | 6.1 | 0.00 | 0.00 | 0.00 | 66 | 1012.2 |
| 20260505022543 | 50 | 56 | 4.3 | 9.6 | 0.00 | 0.00 | 0.00 | 64 | 1012.2 |
| 20260505022040 | 50 | 149 | 0.0 | 1.7 | 0.00 | 0.00 | 0.00 | 70 | 1011.9 |
| 20260505021536 | 50 | 147 | 1.7 | 1.7 | 0.00 | 0.00 | 0.00 | 72 | 1011.8 |
| 20260505021033 | 49 | 144 | 2.6 | 4.3 | 0.00 | 0.00 | 0.00 | 74 | 1011.9 |
| 20260505020532 | 50 | 126 | 4.3 | 5.2 | 0.00 | 0.00 | 0.00 | 76 | 1011.9 |
| 20260505020030 | 50 | 145 | 3.5 | 4.3 | 0.00 | 0.00 | 0.00 | 77 | 1012.1 |
| 20260505015527 | 50 | 140 | 5.2 | 6.1 | 0.00 | 0.00 | 0.00 | 74 | 1011.8 |
| 20260505015024 | 51 | 132 | 4.3 | 5.2 | 0.00 | 0.00 | 0.00 | 68 | 1011.8 |
| 20260505014520 | 51 | 105 | 0.0 | 0.9 | 0.00 | 0.00 | 0.00 | 66 | 1011.8 |
| 20260505014018 | 52 | 154 | 1.7 | 2.6 | 0.00 | 0.00 | 0.00 | 63 | 1011.6 |
| 20260505013515 | 51 | 142 | 4.3 | 7.8 | 0.00 | 0.00 | 0.00 | 64 | 1011.9 |
| 20260505013012 | 49 | 197 | 0.9 | 1.7 | 0.00 | 0.00 | 0.00 | 75 | 1011.9 |
| 20260505012510 | 49 | 174 | 3.5 | 7.8 | 0.00 | 0.00 | 0.00 | 72 | 1011.9 |
| 20260505012007 | 50 | 172 | 6.1 | 8.7 | 0.00 | 0.00 | 0.00 | 77 | 1011.7 |
| 20260505011503 | 51 | 159 | 7.0 | 9.6 | 0.00 | 0.00 | 0.00 | 69 | 1011.6 |
| 20260505011000 | 54 | 231 | 7.8 | 13.0 | 0.00 | 0.00 | 0.00 | 60 | 1011.5 |
| 20260505010455 | 55 | 238 | 1.7 | 5.2 | 0.00 | 0.00 | 0.00 | 50 | 1011.4 |
| 20260505005951 | 55 | 213 | 0.9 | 1.7 | 0.00 | 0.00 | 0.00 | 52 | 1011.2 |
| 20260505005448 | 56 | 191 | 0.0 | 0.9 | 0.00 | 0.00 | 0.00 | 53 | 1011.1 |
| 20260505004946 | 56 | 215 | 1.7 | 2.6 | 0.00 | 0.00 | 0.00 | 49 | 1011.0 |
| 20260505004443 | 56 | 203 | 2.6 | 4.3 | 0.00 | 0.00 | 0.00 | 47 | 1010.6 |
| 20260505003939 | 56 | 151 | 6.1 | 7.8 | 0.00 | 0.00 | 0.00 | 47 | 1010.5 |
| 20260505003437 | 57 | 73 | 5.2 | 13.9 | 0.00 | 0.00 | 0.00 | 45 | 1010.6 |
| 20260505002933 | 58 | 56 | 7.0 | 9.6 | 0.00 | 0.00 | 0.00 | 44 | 1010.4 |
| 20260505002429 | 58 | 81 | 6.1 | 7.8 | 0.00 | 0.00 | 0.00 | 40 | 1010.4 |
| 20260505001928 | 58 | 102 | 8.7 | 11.3 | 0.00 | 0.00 | 0.00 | 40 | 1010.4 |
| 20260505001425 | 59 | 80 | 3.5 | 8.7 | 0.00 | 0.00 | 0.00 | 40 | 1010.4 |
| 20260505000922 | 59 | 37 | 6.1 | 11.3 | 0.00 | 0.00 | 0.00 | 40 | 1010.3 |
| 20260505000420 | 59 | 51 | 0.9 | 7.8 | 0.00 | 0.00 | 0.00 | 39 | 1010.2 |
| 20260504235916 | 59 | 46 | 4.3 | 7.8 | 0.00 | 0.00 | 0.00 | 39 | 1010.1 |
| 20260504235414 | 59 | 46 | 7.0 | 7.8 | 0.00 | 0.00 | 0.00 | 39 | 1009.9 |
| 20260504234909 | 60 | 50 | 6.1 | 8.7 | 0.00 | 0.00 | 0.00 | 39 | 1010.2 |
| 20260504234408 | 60 | 47 | 4.3 | 11.3 | 0.00 | 0.00 | 0.00 | 39 | 1009.9 |
| 20260504233904 | 60 | 54 | 5.2 | 7.8 | 0.00 | 0.00 | 0.00 | 38 | 1010.1 |
| 20260504233359 | 60 | 114 | 4.3 | 6.1 | 0.00 | 0.00 | 0.00 | 37 | 1009.9 |
| 20260504232856 | 60 | 45 | 3.5 | 8.7 | 0.00 | 0.00 | 0.00 | 38 | 1010.1 |
| 20260504232353 | 61 | 63 | 4.3 | 12.2 | 0.00 | 0.00 | 0.00 | 37 | 1010.1 |
| 20260504231850 | 60 | 65 | 4.3 | 8.7 | 0.00 | 0.00 | 0.00 | 37 | 1009.9 |
| 20260504231346 | 60 | 95 | 0.0 | 2.6 | 0.00 | 0.00 | 0.00 | 38 | 1010.1 |
| 20260504230843 | 60 | 60 | 0.9 | 1.7 | 0.00 | 0.00 | 0.00 | 37 | 1009.8 |
| 20260504230341 | 61 | 66 | 3.5 | 7.0 | 0.00 | 0.00 | 0.00 | 37 | 1009.8 |
| 20260504225839 | 60 | 179 | 1.7 | 5.2 | 0.00 | 0.00 | 0.00 | 37 | 1010.1 |
| 20260504225335 | 61 | 227 | 1.7 | 2.6 | 0.00 | 0.00 | 0.00 | 37 | 1010.2 |
| 20260504224833 | 61 | 100 | 2.6 | 6.1 | 0.00 | 0.00 | 0.00 | 36 | 1009.8 |
| 20260504224330 | 61 | 110 | 7.0 | 7.8 | 0.00 | 0.00 | 0.00 | 36 | 1009.6 |
| 20260504223826 | 61 | 101 | 2.6 | 6.1 | 0.00 | 0.00 | 0.00 | 37 | 1009.8 |
| 20260504223322 | 62 | 96 | 6.1 | 7.8 | 0.00 | 0.00 | 0.00 | 36 | 1009.9 |
| 20260504222819 | 61 | 25 | 3.5 | 6.1 | 0.00 | 0.00 | 0.00 | 36 | 1009.7 |
| 20260504222316 | 61 | 56 | 5.2 | 7.0 | 0.00 | 0.00 | 0.00 | 37 | 1009.7 |
| 20260504221815 | 61 | 91 | 3.5 | 7.8 | 0.00 | 0.00 | 0.00 | 38 | 1009.8 |
| 20260504221310 | 61 | 46 | 2.6 | 7.8 | 0.00 | 0.00 | 0.00 | 37 | 1010.1 |
| 20260504220807 | 61 | 40 | 7.8 | 9.6 | 0.00 | 0.00 | 0.00 | 37 | 1010.1 |
| 20260504220304 | 61 | 32 | 9.6 | 9.6 | 0.00 | 0.00 | 0.00 | 37 | 1010.2 |
| 20260504215801 | 60 | 23 | 6.1 | 15.6 | 0.00 | 0.00 | 0.00 | 38 | 1010.2 |
| 20260504215258 | 61 | 51 | 6.1 | 7.8 | 0.00 | 0.00 | 0.00 | 37 | 1010.4 |
| 20260504214754 | 61 | 33 | 4.3 | 7.8 | 0.00 | 0.00 | 0.00 | 37 | 1009.9 |
| 20260504214251 | 60 | 66 | 4.3 | 7.8 | 0.00 | 0.00 | 0.00 | 38 | 1010.3 |
| 20260504213747 | 61 | 36 | 7.8 | 12.2 | 0.00 | 0.00 | 0.00 | 37 | 1010.4 |
| 20260504213243 | 60 | 30 | 7.0 | 9.6 | 0.00 | 0.00 | 0.00 | 37 | 1010.3 |
| 20260504212740 | 61 | 37 | 7.8 | 11.3 | 0.00 | 0.00 | 0.00 | 37 | 1010.5 |
| 20260504212237 | 61 | 24 | 13.0 | 20.9 | 0.00 | 0.00 | 0.00 | 37 | 1010.1 |
| 20260504211735 | 61 | 56 | 6.1 | 11.3 | 0.00 | 0.00 | 0.00 | 36 | 1010.4 |
| 20260504211231 | 61 | 9 | 11.3 | 13.9 | 0.00 | 0.00 | 0.00 | 37 | 1010.4 |
| 20260504210728 | 62 | 26 | 9.6 | 17.4 | 0.00 | 0.00 | 0.00 | 36 | 1010.5 |
| 20260504210225 | 61 | 73 | 1.7 | 8.7 | 0.00 | 0.00 | 0.00 | 37 | 1010.5 |
| 20260504205722 | 61 | 43 | 6.1 | 11.3 | 0.00 | 0.00 | 0.00 | 37 | 1010.5 |
| 20260504205220 | 62 | 33 | 13.0 | 18.2 | 0.00 | 0.00 | 0.00 | 37 | 1010.6 |
| 20260504204718 | 62 | 351 | 7.8 | 15.6 | 0.00 | 0.00 | 0.00 | 37 | 1010.4 |
| 20260504204216 | 62 | 34 | 10.4 | 14.8 | 0.00 | 0.00 | 0.00 | 37 | 1010.5 |
| 20260504203715 | 62 | 26 | 10.4 | 14.8 | 0.00 | 0.00 | 0.00 | 37 | 1010.4 |
| 20260504203212 | 62 | 16 | 17.4 | 19.1 | 0.00 | 0.00 | 0.00 | 37 | 1010.3 |
| 20260504202711 | 62 | 18 | 9.6 | 12.2 | 0.00 | 0.00 | 0.00 | 36 | 1010.5 |
| 20260504202204 | 62 | 94 | 4.3 | 8.7 | 0.00 | 0.00 | 0.00 | 37 | 1010.4 |
| 20260504201700 | 63 | 36 | 11.3 | 17.4 | 0.00 | 0.00 | 0.00 | 37 | 1010.3 |
| 20260504201158 | 62 | 341 | 12.2 | 17.4 | 0.00 | 0.00 | 0.00 | 36 | 1010.3 |
| 20260504200655 | 63 | 6 | 16.5 | 20.0 | 0.00 | 0.00 | 0.00 | 36 | 1010.6 |
| 20260504200152 | 63 | 19 | 11.3 | 17.4 | 0.00 | 0.00 | 0.00 | 36 | 1010.4 |
| 20260504195647 | 63 | 26 | 11.3 | 14.8 | 0.00 | 0.00 | 0.00 | 36 | 1010.1 |
| 20260504195144 | 64 | 12 | 16.5 | 20.0 | 0.00 | 0.00 | 0.00 | 34 | 1010.3 |
| 20260504194641 | 62 | 358 | 15.6 | 23.5 | 0.00 | 0.00 | 0.00 | 38 | 1010.2 |
| 20260504194137 | 65 | 58 | 13.0 | 15.6 | 0.00 | 0.00 | 0.00 | 36 | 1010.3 |
| 20260504193633 | 64 | 16 | 13.0 | 19.1 | 0.00 | 0.00 | 0.00 | 34 | 1010.2 |
| 20260504193132 | 64 | 68 | 6.1 | 13.9 | 0.00 | 0.00 | 0.00 | 35 | 1010.1 |
| 20260504192629 | 63 | 35 | 8.7 | 19.1 | 0.00 | 0.00 | 0.00 | 35 | 1010.2 |
| 20260504192127 | 64 | 59 | 14.8 | 21.7 | 0.00 | 0.00 | 0.00 | 36 | 1010.3 |
| 20260504191625 | 64 | 32 | 11.3 | 19.1 | 0.00 | 0.00 | 0.00 | 34 | 1010.3 |
| 20260504191121 | 64 | 355 | 13.0 | 22.6 | 0.00 | 0.00 | 0.00 | 36 | 1010.1 |
| 20260504190617 | 64 | 22 | 9.6 | 18.2 | 0.00 | 0.00 | 0.00 | 35 | 1009.8 |
| 20260504190114 | 64 | 26 | 14.8 | 21.7 | 0.00 | 0.00 | 0.00 | 34 | 1010.1 |
| 20260504185610 | 64 | 41 | 8.7 | 26.1 | 0.00 | 0.00 | 0.00 | 35 | 1010.2 |
| 20260504185107 | 64 | 11 | 11.3 | 21.7 | 0.00 | 0.00 | 0.00 | 35 | 1010.3 |
| 20260504184603 | 64 | 10 | 18.2 | 26.9 | 0.00 | 0.00 | 0.00 | 35 | 1010.2 |
| 20260504184058 | 64 | 35 | 9.6 | 20.9 | 0.00 | 0.00 | 0.00 | 35 | 1010.3 |
| 20260504183555 | 64 | 25 | 20.9 | 28.7 | 0.00 | 0.00 | 0.00 | 34 | 1010.4 |
| 20260504183054 | 65 | 40 | 16.5 | 22.6 | 0.00 | 0.00 | 0.00 | 33 | 1010.3 |
| 20260504182550 | 65 | 352 | 14.8 | 18.2 | 0.00 | 0.00 | 0.00 | 32 | 1010.3 |
| 20260504182048 | 64 | 27 | 15.6 | 23.5 | 0.00 | 0.00 | 0.00 | 34 | 1010.4 |
| 20260504181544 | 65 | 30 | 16.5 | 22.6 | 0.00 | 0.00 | 0.00 | 33 | 1010.2 |
| 20260504181043 | 66 | 359 | 20.9 | 22.6 | 0.00 | 0.00 | 0.00 | 32 | 1010.4 |
| 20260504180541 | 64 | 9 | 19.1 | 23.5 | 0.00 | 0.00 | 0.00 | 32 | 1010.4 |
| 20260504180040 | 65 | 26 | 17.4 | 20.9 | 0.00 | 0.00 | 0.00 | 31 | 1010.5 |
| 20260504175537 | 64 | 43 | 15.6 | 22.6 | 0.00 | 0.00 | 0.00 | 31 | 1010.4 |
| 20260504175034 | 63 | 9 | 15.6 | 20.0 | 0.00 | 0.00 | 0.00 | 31 | 1010.3 |
| 20260504174532 | 64 | 20 | 13.0 | 20.0 | 0.00 | 0.00 | 0.00 | 31 | 1010.3 |
| 20260504174028 | 64 | 28 | 26.9 | 30.4 | 0.00 | 0.00 | 0.00 | 30 | 1010.2 |
| 20260504173525 | 63 | 28 | 21.7 | 27.8 | 0.00 | 0.00 | 0.00 | 31 | 1010.1 |
| 20260504173022 | 62 | 72 | 13.9 | 23.5 | 0.00 | 0.00 | 0.00 | 31 | 1009.9 |
| 20260504172518 | 62 | 26 | 24.3 | 28.7 | 0.00 | 0.00 | 0.00 | 31 | 1010.2 |
| 20260504172015 | 64 | 7 | 20.0 | 33.9 | 0.00 | 0.00 | 0.00 | 31 | 1009.6 |
| 20260504171512 | 66 | 6 | 8.7 | 9.6 | 0.00 | 0.00 | 0.00 | 24 | 1009.6 |
| 20260504171009 | 66 | 38 | 5.2 | 6.1 | 0.00 | 0.00 | 0.00 | 24 | 1009.5 |
| 20260504170504 | 67 | 19 | 8.7 | 13.0 | 0.00 | 0.00 | 0.00 | 24 | 1009.5 |
| 20260504160425 | 66 | 40 | 2.6 | 7.8 | 0.00 | 0.00 | 0.00 | 24 | 1009.5 |
| 20260504150849 | 64 | 318 | 6.1 | 12.2 | 0.00 | 0.00 | 0.00 | 24 | 1009.5 |
| 20260504150345 | 63 | 359 | 6.1 | 9.6 | 0.00 | 0.00 | 0.00 | 26 | 1009.7 |
| 20260504141315 | 57 | 275 | 9.6 | 11.3 | 0.00 | 0.00 | 0.00 | 31 | 1010.2 |
| 20260504140812 | 57 | 255 | 8.7 | 11.3 | 0.00 | 0.00 | 0.00 | 32 | 1010.2 |
| 20260504140308 | 56 | 290 | 5.2 | 11.3 | 0.00 | 0.00 | 0.00 | 34 | 1009.9 |
| 20260504130737 | 48 | 212 | 2.6 | 4.3 | 0.00 | 0.00 | 0.00 | 50 | 1009.7 |
| 20260504130232 | 47 | 219 | 1.7 | 2.6 | 0.00 | 0.00 | 0.00 | 54 | 1009.7 |
| 20260504120156 | 37 | 270 | 5.2 | 7.8 | 0.00 | 0.00 | 0.00 | 65 | 1009.8 |
| 20260504110624 | 37 | 282 | 1.7 | 4.3 | 0.00 | 0.00 | 0.00 | 68 | 1009.8 |
| 20260504110120 | 37 | 201 | 0.0 | 0.9 | 0.00 | 0.00 | 0.00 | 68 | 1010.1 |
| 20260504100545 | 36 | 268 | 0.0 | 0.0 | 0.00 | 0.00 | 0.00 | 68 | 1010.2 |
| 20260504081939 | 35 | 181 | 0.9 | 0.9 | 0.00 | 0.00 | 0.00 | 67 | 1010.9 |
| 20260504081436 | 35 | 225 | 2.6 | 6.1 | 0.00 | 0.00 | 0.00 | 67 | 1011.1 |
| 20260504080932 | 36 | 280 | 2.6 | 5.2 | 0.00 | 0.00 | 0.00 | 66 | 1011.1 |
| 20260504080428 | 37 | 223 | 0.0 | 0.0 | 0.00 | 0.00 | 0.00 | 68 | 1011.2 |